sat.trackr.live / text

‹ back to catalog

UNKNOWN

NORAD 82073

UNKNOWN UNKNOWN UNKNOWN

§ Identity

Operator
Country
Launch date
Launch site
Launch vehicle
Mass (kg)
RCS (m²)

External: N2YO · Heavens-Above

§ Orbital elements

Epoch: 2026-05-23T22:20:26.034432Z

Period
100.02 min
Inclination
97.7320°
Eccentricity
0.0206162
Mean motion
14.39766015 rev/d
Perigee alt
612.1 km
Apogee alt
906.4 km
Semi-major
7,137.4 km
B*
5.5188e-4
RAAN
209.5523°
Arg perigee
151.8254°
Mean anomaly
209.4276°
Rev number
59,845

§ Raw data

UNKNOWN1 82073U          26143.93085688  .00002179  00000+0  55188-3 0  99912 82073  97.7320 209.5523 0206162 151.8254 209.4276 14.39766015598452

JSON: /api/v1/satellites/82073 · /tle

For live sub-satellite position, see the globe view (requires WebGL).

§ Visibility from observer

Set your observer location to see the next 7 days of passes ≥ 10°. The values pass through the URL so the page stays shareable.

No JS? Fill the form by hand. The geolocation button needs JavaScript.